Cook, MN

3:53 PM CDT on May 24, 2017 (GMT -0500)
Cook Municipal

Weather History for KCQM - May, 2013

Change the Weather History Date:

Tuesday, May 7, 2013

  Actual Average Record
Temperature  
Mean Temperature 54 °F -  
Max Temperature 75 °F 58 °F 75 °F (2013)
Min Temperature 33 °F 34 °F 21 °F (2004)
Degree Days  
Heating Degree Days 11    
Growing Degree Days 4 (Base 50)    
Moisture  
Dew Point 41 °F    
Average Humidity 60    
Maximum Humidity 100    
Minimum Humidity 27    
Precipitation  
Precipitation 0.00 in - - ()
Sea Level Pressure  
Sea Level Pressure 30.01 in    
Wind  
Wind Speed 2 mph (SSW)    
Max Wind Speed 12 mph    
Max Gust Speed 18 mph    
Visibility 10 miles    
Events      
Averages and records for this station are not official NWS values.
T = Trace of Precipitation, MM = Missing Value Source: NWS Daily Summary

Daily Weather History Graph

Daily Weather History Graph

Search for Another Location

Airport or City:

Trip Planner

Search our weather history database for the weather conditions in past years. The results will help you decide how hot, cold, wet, or windy it might be!

Date:

Astronomy

May. 07, 2013 Rise Set
Actual Time 5:43 AM CDT 8:32 PM CDT
Civil Twilight 5:07 AM CDT 9:07 PM CDT
Nautical Twilight 4:22 AM CDT 9:53 PM CDT
Astronomical Twilight 3:28 AM CDT 10:48 PM CDT
Moon 4:27 AM CDT (5/7) 6:24 PM CDT (5/7)
Length of Visible Light 16h 00m
Length of Day
14h 48m
Waning Crescent, 5% of the Moon is Illuminated
May 7
Waning Crescent
May 9
New
May 17
First Quarter
May 24
Full
May 31
Last Quarter

Hourly Weather History & Observations

Time (CDT) Temp. Dew Point Humidity Pressure Visibility Wind Dir Wind Speed Gust Speed Precip Events Conditions
12:17 AM 42.8 °F 39.2 °F 87% 30.05 in 10.0 mi Calm Calm - N/A   Clear
12:36 AM 42.8 °F 39.2 °F 87% 30.05 in 10.0 mi Calm Calm - N/A   Clear
12:56 AM 42.8 °F 39.2 °F 87% 30.05 in 10.0 mi Calm Calm - N/A   Clear
1:17 AM 39.2 °F 37.4 °F 93% 30.05 in 10.0 mi Calm Calm - N/A   Clear
1:36 AM 39.2 °F 39.2 °F 100% 30.05 in 10.0 mi Calm Calm - N/A   Clear
1:56 AM 39.2 °F 37.4 °F 93% 30.05 in 10.0 mi Calm Calm - N/A   Clear
2:17 AM 39.2 °F 37.4 °F 93% 30.06 in 10.0 mi Calm Calm - N/A   Clear
2:36 AM 39.2 °F 37.4 °F 93% 30.06 in 10.0 mi Calm Calm - N/A   Clear
2:56 AM 37.4 °F 35.6 °F 93% 30.06 in 10.0 mi Calm Calm - N/A   Clear
3:17 AM 35.6 °F 35.6 °F 100% 30.06 in 10.0 mi Calm Calm - N/A   Clear
3:36 AM 37.4 °F 35.6 °F 93% 30.06 in 10.0 mi Calm Calm - N/A   Clear
3:56 AM 37.4 °F 35.6 °F 93% 30.06 in 10.0 mi Calm Calm - N/A   Clear
4:17 AM 37.4 °F 35.6 °F 93% 30.06 in 10.0 mi Calm Calm - N/A   Clear
4:36 AM 35.6 °F 35.6 °F 100% 30.06 in 10.0 mi Calm Calm - N/A   Clear
4:57 AM 35.6 °F 33.8 °F 93% 30.06 in 10.0 mi Calm Calm - N/A   Clear
5:17 AM 33.8 °F 33.8 °F 100% 30.06 in 10.0 mi Calm Calm - N/A   Clear
5:36 AM 33.8 °F 33.8 °F 100% 30.06 in 10.0 mi Calm Calm - N/A   Clear
5:57 AM 33.8 °F 33.8 °F 100% 30.06 in 10.0 mi Calm Calm - N/A   Clear
6:16 AM 33.8 °F 33.8 °F 100% 30.07 in 10.0 mi Calm Calm - N/A   Clear
6:36 AM 35.6 °F 33.8 °F 93% 30.07 in 10.0 mi Calm Calm - N/A   Clear
6:57 AM 39.2 °F 37.4 °F 93% 30.07 in 10.0 mi Calm Calm - N/A   Clear
7:16 AM 42.8 °F 39.2 °F 87% 30.07 in 10.0 mi Calm Calm - N/A   Clear
7:36 AM 46.4 °F 42.8 °F 87% 30.07 in 10.0 mi Calm Calm - N/A   Clear
7:57 AM 50.0 °F 44.6 °F 82% 30.07 in 10.0 mi Calm Calm - N/A   Clear
8:16 AM 53.6 °F 44.6 °F 72% 30.07 in 10.0 mi Calm Calm - N/A   Clear
8:36 AM 55.4 °F 46.4 °F 72% 30.07 in 10.0 mi Calm Calm - N/A   Clear
8:57 AM 59.0 °F 46.4 °F 63% 30.07 in 10.0 mi Calm Calm - N/A   Clear
9:16 AM 60.8 °F 46.4 °F 59% 30.06 in 10.0 mi Calm Calm - N/A   Clear
9:36 AM 64.4 °F 48.2 °F 56% 30.06 in 10.0 mi Calm Calm - N/A   Clear
9:57 AM 64.4 °F 46.4 °F 52% 30.05 in 10.0 mi Calm Calm - N/A   Clear
10:16 AM 68.0 °F 48.2 °F 49% 30.05 in 10.0 mi Calm Calm - N/A   Clear
10:56 AM 69.8 °F 46.4 °F 43% 30.04 in 10.0 mi SW 5.8 mph - N/A   Clear
11:13 AM 69.8 °F 44.6 °F 40% 30.03 in 10.0 mi South 10.4 mph - N/A   Scattered Clouds
11:37 AM 69.8 °F 44.6 °F 40% 30.03 in 10.0 mi South 6.9 mph - N/A   Scattered Clouds
11:56 AM 71.6 °F 44.6 °F 38% 30.02 in 10.0 mi South 6.9 mph - N/A   Scattered Clouds
12:16 PM 71.6 °F 44.6 °F 38% 30.02 in 10.0 mi SSE 8.1 mph - N/A   Scattered Clouds
12:37 PM 71.6 °F 42.8 °F 35% 30.02 in 10.0 mi South 9.2 mph 18.4 mph N/A   Scattered Clouds
12:56 PM 71.6 °F 42.8 °F 35% 30.01 in 10.0 mi SSW 11.5 mph 16.1 mph N/A   Clear
1:16 PM 73.4 °F 42.8 °F 33% 30.01 in 10.0 mi SW 9.2 mph - N/A   Scattered Clouds
1:37 PM 73.4 °F 42.8 °F 33% 30.00 in 10.0 mi SW 11.5 mph - N/A   Scattered Clouds
1:56 PM 75.2 °F 42.8 °F 31% 30.00 in 10.0 mi South 10.4 mph - N/A   Scattered Clouds
2:16 PM 71.6 °F 42.8 °F 35% 29.99 in 10.0 mi South 6.9 mph - N/A   Mostly Cloudy
2:37 PM 75.2 °F 41.0 °F 29% 29.98 in 10.0 mi SSE 10.4 mph - N/A   Mostly Cloudy
2:56 PM 73.4 °F 41.0 °F 31% 29.98 in 10.0 mi South 9.2 mph - N/A   Scattered Clouds
3:16 PM 75.2 °F 42.8 °F 31% 29.97 in 10.0 mi SSE 9.2 mph - N/A   Scattered Clouds
3:37 PM 73.4 °F 41.0 °F 31% 29.96 in 10.0 mi South 6.9 mph - N/A   Scattered Clouds
3:56 PM 73.4 °F 41.0 °F 31% 29.96 in 10.0 mi Calm Calm - N/A   Scattered Clouds
4:16 PM 75.2 °F 39.2 °F 27% 29.95 in 10.0 mi WSW 10.4 mph 17.3 mph N/A   Scattered Clouds
4:37 PM 73.4 °F 37.4 °F 27% 29.95 in 10.0 mi SW 10.4 mph - N/A   Scattered Clouds
4:56 PM 73.4 °F 39.2 °F 29% 29.95 in 10.0 mi SW 6.9 mph - N/A   Scattered Clouds
5:16 PM 73.4 °F 39.2 °F 29% 29.95 in 10.0 mi WSW 6.9 mph - N/A   Mostly Cloudy
5:37 PM 73.4 °F 39.2 °F 29% 29.95 in 10.0 mi SW 6.9 mph - N/A   Scattered Clouds
5:56 PM 73.4 °F 41.0 °F 31% 29.95 in 10.0 mi SSW 9.2 mph - N/A   Scattered Clouds
6:16 PM 73.4 °F 41.0 °F 31% 29.95 in 10.0 mi SW 10.4 mph - N/A   Scattered Clouds
6:37 PM 71.6 °F 41.0 °F 33% 29.95 in 10.0 mi SW 6.9 mph - N/A   Mostly Cloudy
6:56 PM 73.4 °F 41.0 °F 31% 29.94 in 10.0 mi SW 3.5 mph - N/A   Mostly Cloudy
7:16 PM 73.4 °F 41.0 °F 31% 29.94 in 10.0 mi SSW 5.8 mph - N/A   Scattered Clouds
7:37 PM 71.6 °F 41.0 °F 33% 29.94 in 10.0 mi WSW 11.5 mph - N/A   Clear
7:56 PM 71.6 °F 41.0 °F 33% 29.95 in 10.0 mi SW 5.8 mph - N/A   Clear
8:16 PM 69.8 °F 41.0 °F 35% 29.95 in 10.0 mi Calm Calm - N/A   Scattered Clouds
8:37 PM 68.0 °F 41.0 °F 37% 29.95 in 10.0 mi Calm Calm - N/A   Scattered Clouds
8:56 PM 62.6 °F 42.8 °F 48% 29.95 in 10.0 mi Calm Calm - N/A   Scattered Clouds
9:16 PM 57.2 °F 42.8 °F 59% 29.96 in 10.0 mi Calm Calm - N/A   Clear
9:37 PM 55.4 °F 42.8 °F 63% 29.97 in 10.0 mi Calm Calm - N/A   Clear
9:56 PM 53.6 °F 42.8 °F 67% 29.97 in 10.0 mi Calm Calm - N/A   Clear
10:16 PM 51.8 °F 42.8 °F 71% 29.97 in 10.0 mi SE 3.5 mph - N/A   Scattered Clouds
10:37 PM 53.6 °F 42.8 °F 67% 29.97 in 10.0 mi SSE 3.5 mph - N/A   Scattered Clouds
10:56 PM 59.0 °F 42.8 °F 55% 29.97 in 10.0 mi SSE 3.5 mph - N/A   Scattered Clouds
11:16 PM 59.0 °F 42.8 °F 55% 29.97 in 10.0 mi SSE 3.5 mph - N/A   Clear
11:37 PM 59.0 °F 42.8 °F 55% 29.97 in 10.0 mi South 3.5 mph - N/A   Clear
11:56 PM 57.2 °F 42.8 °F 59% 29.97 in 10.0 mi Calm Calm - N/A   Clear